Biblioteca

Música » One Direction »

Moments MaddeWinchester marcou esta faixa como favorita

54 execuções | Ir para página da faixa

Semana que termina em Sexta 25 de maio de 2012 Todo o tempo

Faixas (54)
Faixa Álbum Duração Data
Moments 4:22 Mai 24 2012, 21h22
Moments 4:22 Mai 24 2012, 20h04
Moments 4:22 Mai 24 2012, 16h19
Moments 4:22 Mai 24 2012, 16h11
Moments 4:22 Mai 24 2012, 16h06
Moments 4:22 Mai 24 2012, 16h03
Moments 4:22 Mai 24 2012, 15h52
Moments 4:22 Mai 24 2012, 15h44
Moments 4:22 Mai 24 2012, 15h10
Moments 4:22 Mai 24 2012, 15h03
Moments 4:22 Mai 24 2012, 14h20
Moments 4:22 Mai 24 2012, 13h25
Moments 4:22 Mai 24 2012, 12h31
Moments 4:22 Mai 23 2012, 22h31
Moments 4:22 Mai 23 2012, 21h52
Moments 4:22 Mai 23 2012, 21h33
Moments 4:22 Mai 23 2012, 21h21
Moments 4:22 Mai 23 2012, 21h06
Moments 4:22 Mai 23 2012, 20h58
Moments 4:22 Mai 23 2012, 20h01
Moments 4:22 Mai 23 2012, 16h25
Moments 4:22 Mai 23 2012, 12h49
Moments 4:22 Mai 23 2012, 11h50
Moments 4:22 Mai 22 2012, 19h55
Moments 4:22 Mai 22 2012, 19h35
Moments 4:22 Mai 22 2012, 12h24
Moments 4:22 Mai 21 2012, 20h19
Moments 4:22 Mai 21 2012, 20h04
Moments 4:22 Mai 21 2012, 19h47
Moments 4:22 Mai 21 2012, 19h26
Moments 4:22 Mai 21 2012, 19h16
Moments 4:22 Mai 21 2012, 18h34
Moments 4:22 Mai 21 2012, 18h11
Moments 4:22 Mai 21 2012, 15h31
Moments 4:22 Mai 21 2012, 13h53
Moments 4:22 Mai 21 2012, 10h29
Moments 4:22 Mai 20 2012, 19h59
Moments 4:22 Mai 20 2012, 18h11
Moments 4:22 Mai 20 2012, 12h30
Moments 4:22 Mai 20 2012, 12h00
Moments 4:22 Mai 20 2012, 11h41
Moments 4:22 Mai 20 2012, 11h09
Moments 4:22 Mai 20 2012, 10h13
Moments 4:22 Mai 19 2012, 21h37
Moments 4:22 Mai 19 2012, 21h29
Moments 4:22 Mai 19 2012, 21h21
Moments 4:22 Mai 19 2012, 21h12
Moments 4:22 Mai 19 2012, 21h08
Moments 4:22 Mai 19 2012, 14h23
Moments 4:22 Mai 19 2012, 12h26
Moments 4:22 Mai 19 2012, 8h48
Moments 4:22 Mai 18 2012, 21h34
Moments 4:22 Mai 18 2012, 18h31
Moments 4:22 Mai 18 2012, 17h29